KC1UIX-13 Weather Reports


Display with metric or nautical units.
time (UTC)temp
F
wind
direction
speed
MPH
gust
MPH
rain 1hr
in
rain 24hr
in
rain mn
in
humidity
%
barometer
mb
20260906181018 73 339 3.0 7.0 0.00 0.01 0.01 40 1013.7
20260906180018 74 337 2.0 7.0 0.00 0.01 0.01 38 1013.8
20260906175021 73 9 2.0 6.0 0.00 0.01 0.01 39 1013.9
20260906174019 71 10 2.0 6.0 0.00 0.01 0.01 42 1014.0
20260906173019 71 353 4.0 9.0 0.00 0.01 0.01 41 1014.1
20260906172019 71 354 4.0 8.0 0.00 0.01 0.01 43 1014.2
20260906171019 70 338 3.0 8.0 0.00 0.01 0.01 48 1014.2
20260906170019 69 318 3.0 7.0 0.00 0.01 0.01 53 1014.3
20260906165020 70 344 2.0 7.0 0.00 0.09 0.01 54 1014.5
20260906164020 70 339 3.0 7.0 0.00 0.09 0.01 55 1014.6
20260906163020 69 340 3.0 7.0 0.00 0.09 0.01 55 1014.7
20260906162021 69 346 3.0 7.0 0.00 0.09 0.01 57 1014.8
20260906161018 69 337 2.0 7.0 0.00 0.09 0.01 53 1014.9
20260906160021 68 12 2.0 8.0 0.00 0.09 0.01 51 1015.1
20260906155020 68 357 3.0 8.0 0.00 0.09 0.01 54 1015.2
20260906154018 67 1 2.0 7.0 0.00 0.09 0.01 55 1015.2
20260906153018 66 351 3.0 7.0 0.00 0.09 0.01 57 1015.3
20260906152018 66 355 3.0 10.0 0.00 0.09 0.01 60 1015.3
20260906151019 66 325 3.0 6.0 0.00 0.09 0.01 61 1015.4
20260906150021 66 345 2.0 6.0 0.00 0.09 0.01 63 1015.4
20260906145018 65 5 2.0 6.0 0.00 0.09 0.01 66 1015.5
20260906144019 65 5 2.0 6.0 0.00 0.09 0.01 68 1015.6
20260906143019 64 12 2.0 6.0 0.00 0.09 0.01 71 1015.5
20260906142019 63 4 2.0 7.0 0.00 0.09 0.01 74 1015.5
20260906141019 62 349 3.0 7.0 0.00 0.09 0.01 75 1015.5
20260906140019 62 351 3.0 6.0 0.00 0.09 0.01 77 1015.5
20260906135019 61 356 3.0 7.0 0.00 0.09 0.01 80 1015.5
20260906134020 60 350 2.0 6.0 0.00 0.09 0.01 81 1015.6
20260906133020 60 358 2.0 4.0 0.00 0.09 0.01 83 1015.5
20260906132017 59 3 2.0 5.0 0.00 0.09 0.01 82 1015.4
20260906131037 59 356 2.0 5.0 0.00 0.09 0.01 85 1015.3
20260906130020 58 357 2.0 5.0 0.00 0.09 0.01 85 1015.3
20260906125021 58 341 2.0 4.0 0.00 0.09 0.01 87 1015.4
20260906124018 57 330 1.0 4.0 0.00 0.09 0.01 89 1015.3
20260906123018 57 334 2.0 5.0 0.00 0.09 0.01 89 1015.3
20260906122018 56 336 2.0 4.0 0.00 0.09 0.01 90 1015.2
20260906121038 56 314 1.0 4.0 0.00 0.09 0.01 90 1015.1
20260906120021 56 321 1.0 3.0 0.00 0.09 0.01 91 1015.1
20260906115019 56 339 2.0 4.0 0.00 0.09 0.01 91 1015.0
20260906114018 55 332 1.0 4.0 0.00 0.09 0.01 91 1014.9
20260906113019 55 341 2.0 4.0 0.00 0.09 0.01 91 1014.8
20260906112019 55 350 2.0 5.0 0.00 0.09 0.01 91 1014.8
20260906111019 55 355 1.0 3.0 0.00 0.09 0.01 91 1014.7
20260906110019 55 351 1.0 3.0 0.00 0.09 0.01 91 1014.6
20260906105019 55 355 1.0 5.0 0.00 0.09 0.01 92 1014.6
20260906104019 55 2 2.0 4.0 0.00 0.09 0.00 92 1014.6
20260906103020 55 350 2.0 4.0 0.00 0.09 0.00 92 1014.4
20260906102037 54 358 2.0 5.0 0.00 0.09 0.00 92 1014.3
20260906101040 54 1 1.0 3.0 0.00 0.09 0.00 93 1014.3
20260906100020 54 344 1.0 3.0 0.00 0.09 0.00 93 1014.2
20260906095017 54 341 1.0 2.0 0.00 0.09 0.00 93 1014.1
20260906094017 54 349 1.0 3.0 0.00 0.09 0.00 93 1014.1
20260906093017 54 347 1.0 4.0 0.00 0.09 0.00 93 1014.0
20260906092021 54 332 0.0 1.0 0.00 0.09 0.00 92 1013.9
20260906091021 55 293 0.0 1.0 0.00 0.09 0.00 92 1013.8
20260906090058 55 278 0.0 1.0 0.00 0.09 0.00 92 1013.8
20260906085018 55 265 1.0 2.0 0.00 0.09 0.00 91 1013.9
20260906084039 55 257 1.0 2.0 0.00 0.09 0.00 91 1013.9
20260906083019 55 253 0.0 1.0 0.00 0.09 0.00 90 1013.7
20260906082018 55 333 0.0 3.0 0.00 0.09 0.00 91 1013.7
20260906081019 55 324 1.0 2.0 0.00 0.09 0.00 91 1013.5
20260906080019 55 288 0.0 2.0 0.00 0.09 0.00 90 1013.2
20260906075019 55 250 0.0 1.0 0.00 0.09 0.00 90 1013.3
20260906074019 55 355 0.0 2.0 0.00 0.09 0.00 90 1013.5
20260906073017 55 347 1.0 3.0 0.00 0.09 0.00 91 1013.6
20260906072020 55 356 1.0 3.0 0.00 0.09 0.00 91 1013.4
20260906071020 55 356 1.0 2.0 0.00 0.09 0.00 91 1013.2
20260906070020 55 2 1.0 4.0 0.00 0.09 0.00 91 1013.2
20260906065017 55 5 1.0 3.0 0.00 0.09 0.00 92 1013.1
20260906064017 54 4 1.0 3.0 0.00 0.09 0.00 92 1013.1
20260906063018 54 1 1.0 3.0 0.00 0.09 0.00 93 1013.0
20260906062021 54 3 1.0 2.0 0.00 0.09 0.00 93 1013.0
20260906061018 54 359 0.0 3.0 0.00 0.09 0.00 93 1013.0
20260906060018 54 358 0.0 1.0 0.00 0.09 0.00 93 1013.1
20260906055018 55 325 0.0 1.0 0.00 0.09 0.00 93 1013.1
20260906054018 55 358 0.0 2.0 0.00 0.09 0.00 93 1013.2
20260906053038 55 0 0.0 1.0 0.00 0.09 0.00 94 1013.2
20260906052018 55 4 0.0 2.0 0.00 0.09 0.00 94 1013.2
20260906051019 55 4 1.0 2.0 0.00 0.09 0.00 94 1013.3
20260906050019 55 349 0.0 2.0 0.00 0.09 0.00 94 1013.2
20260906045019 55 359 0.0 1.0 0.00 0.09 0.00 94 1013.2
20260906044019 56 359 0.0 2.0 0.00 0.09 0.00 94 1013.0
20260906043019 56 332 0.0 1.0 0.00 0.09 0.00 94 1013.0
20260906042019 56 322 0.0 1.0 0.00 0.09 0.00 94 1013.1
20260906041020 57 323 0.0 1.0 0.00 0.09 0.00 94 1013.1
20260906040020 57 327 0.0 1.0 0.00 0.09 0.00 94 1013.1
20260906035017 57 345 0.0 2.0 0.00 0.09 0.09 94 1013.1
20260906034017 57 358 0.0 1.0 0.00 0.09 0.09 94 1012.9
20260906033040 57 353 0.0 1.0 0.00 0.09 0.09 94 1012.8
20260906032020 58 291 0.0 1.0 0.00 0.09 0.09 94 1012.9
20260906031038 58 353 0.0 1.0 0.00 0.09 0.09 94 1012.8
20260906030018 59 2 0.0 3.0 0.00 0.09 0.09 94 1012.8
20260906025018 59 343 0.0 1.0 0.00 0.09 0.09 94 1012.8
20260906024021 59 356 0.0 1.0 0.00 0.09 0.09 94 1012.8
20260906023039 59 326 0.0 1.0 0.00 0.09 0.09 94 1012.7
20260906022038 59 7 0.0 2.0 0.00 0.09 0.09 94 1012.8
20260906021019 59 306 0.0 1.0 0.00 0.09 0.09 93 1012.7
20260906020019 59 0.0 0.0 0.00 0.09 0.09 93 1012.6
20260906015019 60 308 0.0 1.0 0.00 0.09 0.09 93 1012.7
20260906014019 60 329 0.0 1.0 0.00 0.09 0.09 93 1012.8
20260906013019 60 349 0.0 1.0 0.00 0.09 0.09 93 1012.8
20260906012020 61 320 0.0 2.0 0.00 0.09 0.09 93 1012.8
20260906011037 61 314 0.0 0.0 0.00 0.09 0.09 93 1012.8
20260906010016 61 312 0.0 1.0 0.00 0.09 0.09 93 1012.7
20260906005020 61 10 0.0 1.0 0.00 0.09 0.09 93 1012.7
20260906004020 61 53 0.0 1.0 0.00 0.09 0.09 92 1012.6
20260906003040 61 3 0.0 1.0 0.00 0.09 0.09 92 1012.5
20260906002017 61 289 0.0 0.0 0.00 0.09 0.09 92 1012.5
20260906001017 61 348 0.0 1.0 0.00 0.09 0.09 91 1012.5
20260906000021 62 0.0 0.0 0.00 0.09 0.09 91 1012.4
20260905235021 62 26 0.0 1.0 0.00 0.09 0.09 90 1012.3
20260905234018 62 0.0 0.0 0.00 0.09 0.09 90 1012.2
20260905233018 63 331 0.0 1.0 0.00 0.09 0.09 89 1012.2
20260905232018 63 344 0.0 1.0 0.00 0.09 0.09 88 1012.0
20260905231039 64 0.0 0.0 0.00 0.09 0.09 87 1012.1
20260905230019 64 244 0.0 1.0 0.00 0.09 0.09 86 1012.1
20260905225019 64 253 0.0 2.0 0.00 0.09 0.09 86 1012.1
20260905224019 64 248 1.0 2.0 0.00 0.09 0.09 84 1012.0
20260905223019 65 239 0.0 2.0 0.00 0.09 0.09 83 1012.0
20260905222019 65 248 0.0 2.0 0.00 0.09 0.09 82 1011.9
20260905221017 65 247 1.0 3.0 0.00 0.09 0.09 81 1011.8
20260905220020 65 248 1.0 2.0 0.00 0.09 0.09 82 1011.6
20260905215040 65 237 1.0 3.0 0.00 0.09 0.09 83 1011.6
20260905214021 64 233 1.0 2.0 0.00 0.09 0.09 84 1011.5
20260905213018 64 221 1.0 3.0 0.00 0.09 0.09 85 1011.5
20260905212017 64 242 1.0 4.0 0.00 0.09 0.09 86 1011.5
20260905211018 65 234 1.0 3.0 0.00 0.09 0.09 85 1011.4
20260905210021 65 213 1.0 3.0 0.00 0.17 0.09 85 1011.3
20260905205059 65 245 1.0 2.0 0.00 0.17 0.09 84 1011.3
20260905204019 65 223 0.0 2.0 0.00 0.17 0.09 84 1011.2
20260905203019 65 193 1.0 3.0 0.00 0.17 0.09 84 1011.1
20260905202019 66 200 1.0 3.0 0.00 0.17 0.09 83 1011.0
20260905201019 66 189 1.0 4.0 0.00 0.17 0.09 83 1011.0
20260905200019 66 213 1.0 4.0 0.00 0.17 0.09 83 1010.9
20260905195019 67 222 1.0 4.0 0.00 0.17 0.09 82 1010.9
20260905194020 68 236 1.0 3.0 0.00 0.17 0.09 80 1011.0
20260905193019 68 237 0.0 2.0 0.00 0.17 0.09 83 1011.0
20260905192019 68 200 1.0 4.0 0.00 0.17 0.09 80 1010.9
20260905191100 68 200 1.0 3.0 0.00 0.17 0.09 82 1011.1
20260905190021 67 214 1.0 3.0 0.00 0.17 0.09 84 1011.0
20260905185021 68 224 1.0 4.0 0.00 0.17 0.09 85 1010.9
20260905184020 68 218 0.0 2.0 0.00 0.17 0.09 86 1010.9
20260905183017 67 224 0.0 2.0 0.00 0.17 0.09 85 1010.9
20260905182018 67 262 0.0 2.0 0.00 0.17 0.09 86 1010.9